Regional Weather Roundup
Issued by NWS

Home | Current Version | Previous Version | Text Only | Print | Product List | Glossary Off
Versions: 1 2 3 4 5 6 7 8 9 10 11 12 13 14 15 16 17 18 19 20 21 22 23 24 25 26 27 28 29 30 31 32 33 34 35 36 37 38 39 40 41 42 43 44 45 46 47 48 49 50

465
ASUS43 KFSD 302202
RWRSD

WEATHER ROUNDUP FOR SOUTH DAKOTA
NATIONAL WEATHER SERVICE SIOUX FALLS SD
500 PM CDT SAT JUL 30 2016

NOTE: "FAIR" INDICATES FEW OR NO CLOUDS BELOW 12,000 FEET WITH NO
SIGNIFICANT WEATHER AND/OR OBSTRUCTIONS TO VISIBILITY.


SDZ001>005-009-010-012>017-302300-
NORTHWEST AND NORTH CENTRAL SOUTH DAKOTA

CITY           SKY/WX    TMP DP  RH WIND       PRES   REMARKS
BUFFALO          N/A     93  49  22 SE12G17   29.76F
FAITH            N/A     92  52  25 S10G21    29.83F
MOBRIDGE       SUNNY     92  53  26 SE13      29.80F
$$

SDZ012>016-024>037-041>051-057-063-072>074-302300-
SOUTHWEST AND SOUTH CENTRAL SOUTH DAKOTA

CITY           SKY/WX    TMP DP  RH WIND       PRES   REMARKS
RAPID CTY ARPT TSTM      83  55  38 SW9       29.85S
PIERRE         SUNNY     90  60  36 SE17      29.82F
CUSTER         SUNNY     82  45  27 S8        30.01F
ELLSWORTH AFB  CLOUDY    87  54  33 S10       29.84F
PHILIP         MOSUNNY   91  61  36 SE16G23   29.81F
PINE RIDGE     MOSUNNY   92  59  33 SW14G22   29.88F
WINNER         FAIR      88  63  43 S13G23    29.88F
$$

SDZ004>011-016>023-039-040-302300-
NORTHEAST SOUTH DAKOTA

CITY           SKY/WX    TMP DP  RH WIND       PRES   REMARKS
ABERDEEN       SUNNY     84  58  40 S14       29.90F
WATERTOWN      SUNNY     80  59  48 S12G20    29.96F
BROOKINGS      MOSUNNY   78  59  51 SE13G20   29.97F
SISSETON         N/A     80  61  52 SE13      29.93F
$$

SDZ017-020-022-023-036>040-048>070-302300-
SOUTHEAST SOUTH DAKOTA

CITY           SKY/WX    TMP DP  RH WIND       PRES   REMARKS
SIOUX FALLS    MOSUNNY   81  58  45 SE13G18   29.96F
HURON          MOSUNNY   84  58  40 S13G23    29.90F
CHAMBERLAIN    MOSUNNY   87  66  49 SE15G21   29.88F
MITCHELL       MOSUNNY   83  61  47 SE15      29.91F
YANKTON        MOSUNNY   81  61  50 SE16      29.92F
$$

ABBREVIATIONS USED IN REMARKS
   TC - TEMPERATURE IN CELSIUS
  WCI - WIND CHILL INDEX
   HX - HEAT INDEX
  VSB - VISIBILITY





USA.gov is the U.S. government's official web portal to all federal, state and local government web resources and services.